Location: Newark
(47.5833°N, 8.1500°E)
Time: 17:45:25
(UTC+00:00)

Transit 2A - Pass Details

Date: 27 October 2020
Orbit: 595 x 964 km, 66.7° (Epoch: 01 December)

Event Time Altitude Azimuth Distance (km) Brightness Sun altitude
Rises 23:51:24 0° 186° (S) 3,609 - -54.6°
Reaches altitude 10° 23:54:05 10° 179° (S) 2,684 - -54.5°
Maximum altitude 23:59:54 39° 113° (ESE) 1,401 - -54.1°
Drops below altitude 10° 00:05:40 10° 47° (NE) 2,666 - -53.8°
Exits shadow 00:07:07 - 42° (NE) 3,162 9.6 -53.7°
Sets 00:08:19 0° 40° (NE) 3,581 10.0 -53.6°
